Volver al catálogo

FENGYUN 1C DEB

ActivoSSO
NORAD 31739·DEBRIS·🇨🇳 China

Lanzado May 10, 1999 desde Taiyuan Satellite Launch Center

Loading…

Próximos Pases (próximas 24 horas)

TLE

ActualizadoSource: Space-Track

Época: Sep 12, 2026, 09:31 UTC

1 31739U 99025CEN 26255.39666864  .00000076  00000-0  52742-4 0  9993
2 31739  98.7101 311.7090 0127364  11.3401 349.0598 14.19328782993683

Sigue FENGYUN 1C DEB en tiempo real con AllMySat

Download on the App Store